EHI
0 0 0 0 0 0 0 0 0 0 0 0 0 0 0 0 0 0 0 0 0 0 0 0 0 0 0 0 0 0 0 0 0 0 0 0 0 0
0 0 0 0 0 0 0 0 0 0 0 0 0 0 0 0 0 0 0 0 0 0 0 0 0 0 0 0 0 0 0 0 0 0 0 0 0 0
0 0 0 0 0 0 0 0 0 0 0 0 0 0 0 0 0 0 0 0 0 0 0 0 0 0 0 0 0 0 0 0 0 0 0 0 0 0
0 0 0 0 0 0 0 0 0 0 0 0 0 0 0 0 0 0 0 0 0 0 0 0 0 0 0 0 0 0 0 0 0 0 0 0 0 0
0 0 0 0 0 0 0 0 0 0 0 0 0 0 0 0 0 0 0 0 0 0 0 0 0 0 0 0 0 0 0 0 0 0 0 0 0 0
0 0 0 0 0 0 0 0 0 0 0 0 0 0 0 0 0 0 0 0 0 0 0 0 0 0 0 0 0 0 0 0 0 0 0 0 0 0
0 0 0 0 0 0 0 0 0 0 0 0 0 0 0 0 0 0 0 0 0 0 0 0 0 0 0 0 0 0 0 0 0 0 0 0 0 0
0 0 0 0 0 0 0 0 0 0 0 0 0 0 0 0 0 0 0 0 0 0 0 0 0 0 0 0 0 0 0 0 0 0 0 0 0 0
0 0 0 0 0 0 0 0 0 0 0 0 0 0 0 0 0 0 0 0 0 0 0 0 0 0 0 0 0 0 0 0 0 0 0 0 0 0
0 0 0 0 0 0 0 0 0 0 0 0 0 0 0 0 0 0 0 0 0 0 0 0 0 0 0 0 0 0 0 0 0 0 0 0 0 0
0 0 0 0 0 0 0 0 0 0 0 0 0 0 0 0 0 0 0 0 0 0 0 0 0 0 0 0 0 0 0 0 0 0 0 0 0 0
0 0 0 0 0 0 0 0 0 0 0 0 0 0 0 0 0 0 0 0 0 0 0 0 0 0 0 0 0 0 0 0 0 0 0 0 0 0
0 0 0 0 0 0 0 0 0 0 0 0 0 0 0 0 0 0 0 0 0 0 0 0 0 0 0 0 0 0 0 0 0 0 0 0 0 0
0 0 0 0 0 0 0 0 0 0 0 0 0 0 0 0 0 0 0 0 0 0 0 0 0 0 0 0 0 0 0 0 0 0 0 0 0 0
0 0 0 0 0 0 0 0 0 0 0 0 0 0 0 0 0 0 0 0 0 0 0 0 0 0 0 0 0 0 0 0 0 0 0 0 0 0
0 0 0 0 0 0 0 0 0 0 0 0 0 0 0 0 0 0 0 0 0 0 0 0 0 0 0 0 0 0 0 0 0 0 0 0 0 0
0 0 0 0 0 0 0 0 0 0 0 0 0 0 0 0 0 0 0 0 0 0 0 0 0 0 0 0 0 0 0 0 0 0 0 0 0 0
0 0 0 0 0 0 0 0 0 0 0 0 0 0 0 0 0 0 0 0 0 0 0 0 0 0 0 0 0 0 0 0 0 0 0 0 0 0
0 0 0 0 0 0 0 0 0 0 0 0 0 0 0 0 0 0 0 0 0 0 0 0 0 0 0 0 0 0 0 0 0 0 0 0 0 0
0 0 0 0 0 0 0 0 0 0 0 0 0 0 0 0 0 0 0 0 0 0 0 0 0 0 0 0 0 0 0 0 0 0 0 0 0 0
0 0 0 0 0 0 0 0 0 0 0 0 0 0 0 0 0 0 0 0 0 0 0 0 0 0 0 0 0 0 0 0 0 0 0 0 0 0
0 0 0 0 0 0 0 0 0 0 0 0 0 0 0 0 0 0 0 0 0 0 0 0 0 0 0 0 0 0 0 0 0 0 0 0 0 0
0 0 0 0 0 0 0 0 0 0 0 0 0 0 0 0 0 0 0 0 0 0 0 0 0 0 0 0 0 0 0 0 0 0 0 0 0 0
Wind_Speed
5 5 5 4 4 4 3 3 4 5 6 4 3 3 3 3 6 5 5 8 10 10 10 10 10 9 10 10 10 9 9 9 9 9 9 9 10 10
4 5 6 5 4 4 4 4 4 5 7 5 4 3 4 4 6 5 6 9 9 10 10 11 11 11 11 11 11 10 11 10 10 10 10 10 10 10
6 6 7 6 5 4 4 4 5 5 8 7 4 3 4 5 5 5 5 5 6 10 11 12 11 11 11 10 11 11 11 11 11 11 11 11 11 10
6 6 7 5 6 5 5 5 5 5 6 9 6 4 5 5 5 5 5 5 5 8 11 12 12 11 11 11 11 11 11 11 11 11 11 11 10 10
7 6 6 6 6 5 5 6 5 6 6 7 7 4 4 4 4 4 5 4 5 6 9 10 11 11 11 10 10 10 11 11 11 11 11 11 10 10
7 7 7 7 7 7 6 6 6 6 6 6 6 5 4 4 3 4 5 4 5 5 7 7 9 9 10 10 10 10 10 11 12 12 11 11 10 10
7 7 7 8 10 8 7 6 6 5 5 6 6 5 4 4 4 4 5 4 4 4 4 4 4 5 6 8 9 10 10 11 12 12 11 10 9 9
7 7 7 8 10 12 12 11 9 8 7 7 6 7 6 5 4 4 4 5 5 2 3 5 4 5 4 4 7 9 9 10 11 10 10 9 8 8
6 6 6 6 8 7 9 11 11 12 12 9 8 8 7 6 5 6 6 7 7 3 3 6 4 6 4 4 8 9 9 9 9 9 9 8 8 8
6 7 7 7 7 7 7 8 8 8 10 8 8 8 7 6 7 8 8 6 5 3 3 5 4 5 5 4 6 8 9 9 8 8 7 6 7 7
6 6 7 7 10 11 8 8 8 7 9 11 11 11 12 12 10 6 5 5 6 4 3 4 4 4 4 4 4 7 8 8 8 7 6 6 6 6
5 6 9 10 10 11 8 7 8 7 6 6 7 9 8 9 11 9 7 7 5 5 3 3 3 2 4 3 3 3 5 7 8 7 7 6 6 4
5 5 6 10 11 11 9 7 9 7 5 5 5 5 5 5 5 6 6 7 7 6 4 3 3 3 4 4 3 3 3 4 4 5 6 7 7 5
5 5 6 9 10 10 8 9 10 8 5 4 5 5 4 4 5 5 6 6 6 7 5 5 4 5 4 4 4 2 2 3 3 3 4 6 7 7
5 7 8 9 8 7 8 8 7 5 4 4 5 5 4 4 4 4 4 4 4 4 5 5 5 5 4 4 4 3 2 2 3 3 3 3 4 4
5 6 8 8 6 5 5 5 4 4 4 4 4 4 3 3 4 3 4 3 3 3 3 4 5 5 4 4 4 4 3 3 3 3 3 3 3 3
4 3 3 3 3 3 3 3 2 3 3 3 3 4 4 4 3 3 3 3 4 4 3 2 2 2 3 3 4 4 3 3 3 3 2 3 3 3
4 3 3 3 3 3 3 3 3 3 3 3 3 3 4 4 3 3 2 3 3 3 3 2 2 1 1 2 3 4 3 3 2 2 2 3 3 3
3 3 3 3 3 3 3 3 3 3 3 3 3 3 3 3 3 3 3 3 3 3 2 2 2 3 3 3 2 2 3 2 2 2 2 2 3 3
2 3 3 3 3 3 3 3 3 3 3 3 3 3 3 3 3 3 2 2 2 2 2 2 2 2 3 3 2 2 2 3 2 2 2 1 1 2
3 3 3 3 3 3 3 3 3 3 3 3 3 3 3 3 3 2 2 2 2 1 2 2 2 1 0 1 0 1 1 2 2 2 2 1 1 2
3 3 3 3 3 3 3 3 3 3 3 3 3 2 2 2 2 2 2 2 1 1 1 1 0 0 0 1 2 1 1 2 3 4 3 2 2 3
3 3 3 3 3 3 3 3 3 3 3 2 2 2 1 2 2 2 1 1 1 1 0 0 1 1 0 1 1 1 0 1 1 2 2 3 3 2
Wind_Direction
234 235 241 243 237 240 240 232 239 261 259 244 237 233 238 241 256 248 251 262 266 266 269 272 270 264 263 261 253 250 250 252 253 249 247 249 243 239
238 238 243 246 242 237 237 240 240 246 263 252 238 247 245 260 264 251 250 267 265 267 269 269 268 262 258 258 250 246 245 246 246 249 245 247 244 240
244 243 245 246 247 241 237 239 241 243 259 271 255 251 237 248 258 250 253 250 254 264 267 269 267 262 257 255 253 250 246 243 240 243 242 243 239 240
243 244 249 248 249 246 240 243 245 244 252 269 271 254 247 245 245 249 257 260 255 262 264 266 266 263 258 254 255 252 248 243 239 240 243 242 236 238
239 239 243 244 249 251 248 248 249 250 248 257 268 261 252 246 250 259 255 256 265 267 266 266 267 264 260 255 254 250 244 242 239 235 241 239 232 236
237 237 239 239 243 246 249 249 250 250 251 257 263 262 250 242 235 249 260 253 261 271 268 266 268 266 262 260 257 253 243 239 238 236 238 234 228 232
240 240 241 244 248 247 249 244 243 246 250 257 263 268 253 240 240 245 257 264 261 254 260 257 259 257 255 259 257 250 241 237 237 236 239 232 224 227
245 245 245 247 253 256 257 258 252 248 247 250 256 259 261 246 243 250 255 261 263 236 248 264 253 254 251 246 255 253 245 239 235 235 230 227 222 224
243 247 253 255 257 250 259 264 262 262 256 252 252 252 258 251 244 246 245 248 256 252 256 265 258 259 260 257 258 254 253 243 234 234 226 224 224 222
245 242 244 250 252 252 249 253 252 255 254 250 249 251 255 254 243 247 250 258 269 246 230 258 259 259 266 257 256 249 249 244 239 230 223 227 228 226
249 246 246 245 256 256 252 253 255 256 261 259 259 261 263 264 262 256 244 245 259 251 221 242 256 271 265 252 253 249 251 250 242 232 224 230 230 226
253 250 254 256 260 255 245 244 252 256 258 264 265 269 266 264 262 247 237 238 249 254 215 221 244 265 275 253 244 244 246 246 238 234 232 232 226 214
261 256 253 261 262 259 255 246 253 258 249 249 258 261 261 256 249 244 235 233 236 247 221 214 244 246 252 273 270 245 234 231 221 223 226 225 221 216
263 261 261 266 264 261 257 258 262 261 248 247 252 257 257 258 254 246 238 235 235 242 232 219 238 240 243 256 264 255 230 222 218 224 220 219 219 224
267 273 278 272 268 264 265 268 265 256 246 247 253 260 257 255 257 257 249 238 246 249 241 234 233 234 234 239 246 248 257 249 228 220 219 215 216 212
284 287 290 287 279 278 277 272 260 255 254 252 258 262 258 252 255 255 251 240 246 259 246 236 231 230 236 236 234 239 243 233 218 225 224 224 221 220
289 281 278 281 274 271 268 263 257 263 257 257 259 264 266 264 264 260 256 242 236 238 245 231 228 228 238 228 238 236 233 236 220 215 221 234 230 218
290 271 272 269 268 271 273 273 263 260 259 260 259 259 264 267 268 265 264 248 238 232 226 208 180 186 262 287 251 233 227 229 225 221 225 231 237 224
301 279 273 272 276 279 277 274 272 269 263 259 260 261 265 269 265 265 264 257 241 225 218 210 204 195 213 251 279 240 221 220 220 230 233 237 241 240
297 290 285 282 278 275 276 279 280 279 267 260 257 259 258 260 260 258 257 254 247 230 219 217 215 207 214 226 255 298 273 222 218 229 248 278 278 272
299 295 288 285 283 282 280 278 276 271 269 266 260 258 253 245 249 245 247 260 255 231 231 243 243 240 186 120 183 294 341 334 286 238 222 235 266 262
306 302 298 294 289 284 284 281 276 275 275 268 265 262 255 245 245 243 236 243 245 229 245 280 317 172 150 188 199 222 315 8 21 13 343 271 229 226
302 301 300 299 295 289 282 279 279 282 282 277 274 271 262 260 264 257 247 237 239 214 194 303 2 15 337 167 178 198 154 356 5 21 11 5 353 320